Theta_e
326 324 322 321 320 318 318 319 321 320 315 310 308 307 307 309 311 310 307 306 306 306 308 308 308 309 309 309 309 308 309 309 308 310 311 312 310 308 310 315 315 311 309 311 310 310 312 312 310 309 311 313 315 314 313 314 314 314 315 314 315 316 316 316 315 313 311 309 309 309 309 309 309 309 310 311 311 311 310 310 310 309 309 309 309
326 324 320 319 317 316 318 320 322 320 313 308 307 307 307 307 308 308 307 307 306 307 308 308 308 309 309 309 309 309 309 309 309 313 314 312 311 311 313 318 319 315 314 315 314 311 312 313 310 308 309 312 314 313 313 314 314 313 314 314 314 315 315 315 314 314 313 311 311 311 311 312 311 310 311 311 311 311 310 310 310 309 309 310 310
325 325 323 320 316 318 321 323 324 324 317 309 307 307 307 307 307 307 307 307 307 310 312 311 312 314 312 312 313 313 315 314 315 319 318 315 316 317 317 319 319 317 317 319 319 317 315 314 315 313 310 310 312 312 313 314 314 313 313 314 314 313 314 315 315 315 315 314 314 313 313 314 313 311 311 311 311 312 311 311 311 310 310 311 311
324 324 323 320 317 318 321 322 323 325 323 317 310 307 307 307 307 306 307 307 307 312 316 314 312 315 317 318 319 320 321 319 319 321 321 319 320 319 318 318 318 317 318 320 321 321 319 318 319 318 315 314 314 315 316 315 314 313 314 315 315 315 315 316 316 317 317 316 316 315 314 314 313 312 312 311 312 312 311 311 311 311 311 311 312
324 323 322 320 317 317 318 319 321 324 326 323 317 311 308 306 307 306 308 310 310 315 320 316 312 314 318 321 322 321 322 321 320 321 321 321 321 320 319 320 319 319 320 321 321 321 320 320 320 320 319 319 318 318 318 317 315 314 315 316 316 317 317 317 317 317 317 317 316 316 315 314 313 312 312 313 312 313 312 312 312 312 312 312 312
326 325 323 319 318 320 321 321 322 323 323 321 320 318 314 310 310 309 310 314 315 318 321 320 317 318 320 321 321 321 322 322 321 321 320 319 320 320 321 322 321 321 321 321 320 321 321 320 320 319 320 320 319 319 319 318 317 316 316 315 315 316 317 317 318 318 317 317 317 316 316 315 314 314 314 313 313 313 313 313 313 313 312 312 312
325 325 325 323 322 324 324 323 321 320 319 320 321 322 320 318 318 316 316 318 317 318 319 320 320 321 320 320 320 321 321 321 321 322 320 318 319 321 321 321 320 320 319 318 318 319 320 319 319 320 320 320 320 320 319 319 317 317 317 316 315 315 316 317 317 318 318 317 317 316 316 316 315 315 315 314 314 313 313 313 313 312 312 312 312
325 325 326 326 325 324 323 321 320 320 320 321 322 323 322 321 321 319 319 320 320 319 320 320 320 320 320 320 320 321 320 318 319 320 319 318 318 320 320 319 318 317 317 317 317 318 318 317 319 319 319 319 319 319 319 318 317 317 317 317 316 315 316 316 316 316 316 317 316 316 316 316 316 315 315 314 314 314 313 313 313 313 312 312 312
325 325 325 326 326 325 324 323 322 321 320 320 322 324 323 322 321 319 318 320 320 320 320 320 320 321 321 321 320 320 319 318 318 320 320 319 319 319 318 318 317 316 317 317 317 318 317 315 317 318 318 318 318 319 319 318 317 317 316 316 317 316 316 316 316 316 315 315 315 315 315 316 316 315 315 315 314 314 313 313 313 313 312 312 312
326 325 326 326 326 325 325 325 324 322 322 321 322 322 322 322 322 319 319 319 319 319 320 320 320 321 321 320 319 318 318 318 319 320 320 319 319 320 319 317 316 315 316 317 316 317 317 315 316 317 317 317 318 318 318 318 318 317 316 316 317 317 317 316 316 316 315 314 314 315 315 315 315 315 315 315 314 314 314 313 313 312 312 312 311
325 326 326 327 326 325 325 325 324 323 324 324 322 321 320 321 322 321 320 320 319 319 319 320 320 320 319 318 318 317 317 317 317 317 318 318 318 319 318 317 316 315 316 316 315 316 318 317 316 315 314 314 315 316 316 315 315 314 314 314 314 314 315 315 316 316 315 315 315 315 315 315 314 314 314 314 314 314 313 312 312 311 311 310 310
325 325 325 325 325 325 324 324 324 323 323 323 322 322 321 321 321 321 321 320 319 319 319 319 319 318 318 318 318 317 316 316 316 316 318 318 317 317 317 317 317 316 316 316 316 316 317 317 315 313 312 312 311 311 310 310 309 308 308 307 307 308 309 311 314 316 316 316 315 315 314 314 314 314 313 313 313 313 313 312 311 311 310 309 309
324 324 324 323 323 323 323 324 323 323 323 322 321 322 321 321 321 321 320 320 319 319 319 320 319 319 319 318 317 316 316 317 317 317 317 317 315 316 318 317 316 317 316 316 316 316 316 316 314 314 313 312 310 310 309 308 307 306 305 304 304 304 305 305 308 311 314 316 316 315 314 314 313 313 313 313 312 312 312 311 311 310 309 309 308
321 322 322 321 321 321 321 322 322 321 322 320 320 320 320 321 321 320 320 320 319 319 319 319 319 318 318 317 316 316 316 317 317 316 315 314 313 313 315 315 316 316 316 316 316 315 316 316 315 315 314 312 312 312 310 308 307 304 303 303 303 304 304 304 304 307 310 313 315 315 314 313 313 313 312 312 312 311 310 309 309 309 308 308 308
318 319 319 319 319 319 320 320 320 320 320 319 319 319 319 319 319 319 319 318 318 318 318 317 317 317 316 316 316 316 316 316 315 314 313 311 309 306 307 312 314 314 312 313 313 313 313 314 315 314 313 311 312 312 310 309 308 306 304 304 303 303 304 304 304 305 308 311 314 315 314 313 312 311 311 311 310 309 308 308 308 308 308 307 307
314 315 315 315 316 317 317 318 318 318 319 318 318 318 318 318 318 318 318 317 317 317 316 316 316 316 317 317 315 315 315 314 313 312 310 306 304 302 305 312 314 313 312 310 308 308 308 310 311 310 308 308 308 307 306 306 307 309 310 308 306 305 305 305 304 305 308 310 312 313 313 312 311 310 310 309 308 308 307 307 307 307 306 305 305
313 313 313 313 313 314 314 315 315 316 316 317 317 316 315 315 316 315 316 316 315 316 316 315 316 317 316 315 313 312 312 312 311 308 304 302 302 303 308 313 314 314 312 309 307 306 305 306 308 305 304 305 303 302 302 302 303 309 312 311 309 309 308 306 305 306 307 309 310 311 311 310 309 309 308 308 307 307 307 306 305 305 304 303 302
312 312 312 312 312 313 313 313 314 314 314 315 315 315 314 315 314 314 314 314 314 315 314 313 315 316 315 313 311 309 308 307 305 302 301 302 302 304 310 313 313 313 312 310 308 306 302 302 305 304 303 302 300 300 301 300 301 306 311 311 310 310 309 308 307 307 306 307 307 307 308 308 308 307 307 306 306 305 304 303 303 302 301 300 299
310 311 311 311 312 312 312 313 313 313 313 313 314 313 313 314 314 313 313 313 314 314 313 313 314 314 314 314 312 308 304 302 302 302 302 302 302 304 309 312 311 311 312 311 310 308 304 303 302 301 301 301 300 300 300 299 300 304 309 310 310 310 310 309 308 307 306 306 305 305 304 304 304 304 303 303 302 302 301 301 300 300 299 298 298
309 309 309 310 310 311 311 311 312 312 312 312 313 312 312 312 312 312 312 312 312 313 312 312 312 312 312 313 313 311 306 303 303 303 302 303 302 302 307 311 311 310 311 310 310 310 308 307 305 303 302 302 300 300 300 299 299 302 306 309 309 309 309 309 308 307 307 306 305 304 302 301 301 300 300 300 300 300 300 299 299 299 299 298 298
308 308 308 309 309 309 310 310 311 312 312 312 312 312 312 312 312 312 312 312 312 312 312 311 311 311 311 312 313 312 309 305 304 303 303 304 303 302 305 309 310 310 309 309 309 309 309 308 307 306 306 304 301 299 299 299 300 301 304 307 307 306 307 307 307 307 305 304 302 301 300 300 300 300 300 299 299 299 299 299 299 299 298 299 299
305 305 306 308 308 309 309 309 310 311 312 312 312 312 312 312 311 312 312 312 312 312 312 311 311 311 311 311 311 311 309 306 305 304 304 304 304 303 304 305 308 309 309 308 308 308 308 308 307 306 306 304 301 299 299 300 300 301 302 303 303 303 303 303 303 303 302 301 300 300 299 300 300 300 299 299 299 300 299 299 299 298 298 298 298
301 301 303 304 305 306 307 308 309 309 310 311 311 311 312 312 312 312 312 312 311 311 311 311 310 311 311 311 311 310 309 309 307 305 303 303 304 303 302 303 305 306 306 307 308 307 307 307 306 306 306 303 300 299 299 300 301 302 302 303 302 302 301 301 300 300 299 300 299 298 299 299 299 299 300 300 300 299 299 299 298 298 298 298 298
299 299 299 300 300 302 303 305 307 308 308 309 309 310 311 311 312 312 312 311 311 310 311 311 310 311 310 310 310 310 310 310 309 307 303 302 303 302 301 302 303 302 302 305 307 307 307 306 305 305 303 301 299 299 300 301 302 303 303 302 302 302 301 300 299 299 299 299 298 298 299 299 300 299 299 299 299 299 299 298 298 298 297 297 297
299 299 299 299 299 300 301 303 305 306 307 307 308 308 309 310 311 311 311 311 311 310 310 310 310 310 310 309 309 309 309 309 310 308 305 301 301 301 301 301 301 300 301 303 303 304 304 303 302 301 300 299 299 300 301 303 303 303 303 302 302 301 300 299 299 299 298 298 298 299 299 299 299 298 298 298 298 297 297 297 297 296 296 296 296
299 300 300 300 299 299 299 299 300 301 303 305 306 307 308 308 309 310 310 310 310 310 310 310 310 310 309 309 309 309 309 309 310 309 306 302 300 301 301 301 301 300 300 301 300 301 301 300 299 299 299 299 300 301 302 303 303 303 302 301 301 300 299 299 298 297 296 296 298 298 298 297 297 297 297 297 296 296 296 295 295 295 295 295 294
298 298 299 299 300 300 300 300 300 300 301 302 304 305 306 307 308 308 309 309 310 310 310 310 309 309 309 309 309 309 309 309 309 309 306 302 300 300 300 300 300 300 300 300 299 299 299 299 299 300 300 301 301 302 303 303 302 301 301 300 300 299 298 298 297 296 296 297 297 297 297 296 296 296 296 295 295 295 295 294 294 294 294 294 293
298 298 298 298 299 300 300 300 301 301 301 301 302 303 305 307 307 307 308 308 308 309 309 309 310 309 309 309 309 308 308 307 308 308 305 301 300 300 300 300 300 299 299 299 299 299 299 299 300 301 302 303 303 303 303 302 300 299 299 299 298 298 298 298 297 297 297 297 297 297 297 296 296 295 294 294 294 293 293 293 293 293 293 292 292
297 297 297 297 298 298 299 299 300 300 300 300 300 301 302 303 304 305 306 307 307 307 308 308 308 308 309 309 308 307 307 307 307 307 305 302 301 300 299 299 299 299 299 299 299 299 299 299 301 302 303 304 304 303 301 300 299 298 299 299 298 297 297 298 297 297 297 297 297 297 296 296 295 294 293 293 292 292 292 292 292 291 291 291 291
297 297 297 297 297 298 298 299 300 300 300 300 300 300 300 301 301 302 304 305 305 305 306 306 307 307 307 307 306 306 307 306 306 306 305 304 304 302 300 300 300 299 300 299 299 299 300 300 302 303 304 303 303 301 300 299 299 298 298 298 297 296 296 296 296 296 296 296 296 296 295 295 294 293 292 292 292 291 290 290 290 290 290 290 291
296 296 297 297 297 297 298 298 299 300 300 301 301 301 301 301 301 301 301 302 302 302 303 304 306 306 305 305 305 306 306 306 306 305 305 305 305 304 302 302 301 300 299 300 300 299 300 301 302 303 303 302 301 300 299 298 298 297 297 296 296 296 295 295 295 295 295 295 295 294 294 294 293 292 292 292 291 291 290 290 290 290 291 291 291
296 296 296 296 296 296 297 297 298 299 299 300 301 301 301 302 302 302 302 301 302 302 302 303 304 304 304 304 305 305 305 305 305 305 304 304 305 304 303 303 302 300 300 301 302 301 301 301 302 302 301 301 300 299 298 298 298 297 296 296 296 295 295 295 295 295 295 295 294 294 293 293 293 292 292 292 291 291 290 291 291 291 291 291 291
295 295 295 295 295 295 296 297 298 298 299 300 300 301 301 302 302 302 302 302 302 303 303 304 304 304 304 304 304 304 305 305 305 305 305 305 304 303 303 303 303 302 302 303 302 302 301 301 301 301 301 300 299 299 298 298 297 297 296 295 295 295 295 295 295 295 295 294 294 293 293 293 292 292 292 291 291 291 291 291 291 291 291 291 291
293 294 294 294 294 294 295 295 296 297 298 299 300 300 301 301 301 302 302 302 302 302 303 304 304 304 304 304 304 305 305 305 305 304 304 303 303 301 301 301 302 302 302 302 302 302 301 301 301 301 300 299 299 298 298 297 297 296 295 295 295 295 295 295 294 294 294 294 293 293 293 293 292 292 292 291 291 291 291 291 291 291 291 291 290
293 293 293 293 293 293 294 294 295 296 297 298 298 299 300 300 301 301 302 302 302 302 303 304 303 303 304 303 303 303 303 303 303 303 301 301 300 299 299 300 301 301 301 301 301 301 301 301 301 300 299 299 298 298 297 297 296 295 295 294 294 294 294 294 293 293 292 292 293 293 293 292 292 292 292 291 292 292 292 291 291 291 291 290 290
292 292 293 293 293 293 294 295 296 296 297 297 298 298 299 300 301 301 301 302 302 302 303 303 303 303 303 302 302 301 301 301 301 301 300 299 299 299 299 299 299 299 299 299 300 300 300 300 300 299 299 298 298 297 297 296 295 295 294 293 293 293 292 292 292 291 291 291 292 292 292 292 292 292 292 292 291 291 291 290 290 290 290 290 290
292 292 292 292 293 293 294 294 295 296 297 298 298 298 299 299 299 300 300 300 301 301 301 301 301 301 301 301 300 300 300 300 300 300 299 299 299 299 299 299 299 299 299 299 299 300 300 299 299 299 298 298 297 297 296 296 295 294 294 293 293 292 291 291 292 292 291 292 292 291 291 292 292 292 292 291 291 290 290 290 289 289 289 289 290
292 292 293 293 293 294 294 295 296 297 297 297 297 298 298 299 299 298 299 299 299 299 300 300 300 300 300 300 300 300 301 301 300 300 300 299 299 299 299 299 299 299 299 299 299 299 299 299 299 298 298 297 297 296 296 295 294 294 293 293 292 291 291 291 292 292 292 292 292 290 290 290 291 291 291 291 290 290 289 289 289 289 289 290 290
293 294 294 294 295 295 296 297 297 297 296 296 296 296 297 298 298 298 298 298 298 299 299 299 299 299 300 300 300 300 301 301 300 300 300 299 299 299 299 299 299 299 299 299 299 300 299 298 298 298 297 297 296 296 295 295 294 293 293 292 291 291 291 291 291 292 292 291 290 289 289 289 290 290 290 290 290 289 289 289 289 289 290 290 290
295 296 296 296 296 297 296 296 296 296 296 296 295 295 295 295 295 296 297 297 298 298 298 298 298 298 298 298 299 299 300 300 299 299 299 298 298 298 298 299 299 299 298 299 299 299 299 298 298 297 296 296 296 295 295 294 294 293 292 291 291 290 290 290 291 291 291 290 289 288 289 289 290 290 290 289 289 289 289 289 289 290 290 290 291
297 297 297 297 297 297 296 296 296 296 295 295 294 294 293 293 293 293 294 295 296 297 297 297 298 298 298 298 298 298 298 298 298 298 298 298 298 298 298 298 298 298 298 298 298 298 298 298 297 296 296 296 295 295 294 293 293 292 291 291 291 290 290 290 291 291 291 289 289 288 288 289 290 290 290 289 288 289 289 289 289 290 290 291 291
297 297 297 297 297 297 296 296 296 295 295 294 293 292 292 292 292 292 292 293 294 295 296 297 297 297 297 297 297 297 298 298 297 297 297 297 297 298 298 297 298 298 298 297 297 297 297 297 296 295 295 295 294 293 293 292 292 291 291 291 291 291 290 290 291 291 290 289 288 288 288 289 290 290 289 289 288 288 288 289 290 290 291 291 291
297 297 297 297 297 296 296 296 295 295 294 293 292 291 291 292 292 292 292 293 293 294 294 295 296 296 296 297 297 297 297 297 297 296 296 297 297 297 297 297 297 297 297 296 296 295 295 295 295 294 294 294 293 292 292 291 291 291 291 291 291 291 291 290 290 289 289 288 288 288 288 289 289 290 290 289 289 288 289 290 290 290 291 291 291
296 297 297 297 297 296 296 295 294 294 293 292 292 292 291 291 291 291 292 292 293 293 294 294 295 295 296 296 296 296 296 296 296 296 296 296 296 296 296 296 296 296 296 295 295 295 295 294 294 294 294 293 292 292 292 291 291 291 291 291 291 291 290 289 289 288 288 288 287 288 288 288 289 290 290 289 289 289 290 290 290 291 291 291 290
296 297 297 297 296 296 296 295 294 294 293 293 292 292 292 291 291 291 291 291 291 292 292 293 293 294 295 295 295 295 295 295 295 295 295 295 296 296 296 296 295 295 294 294 294 294 294 294 294 293 293 293 292 292 291 291 291 291 291 291 290 289 289 289 288 288 288 288 287 287 287 288 289 289 290 290 289 290 290 290 290 290 290 290 291
297 297 297 296 296 295 295 295 294 294 294 293 292 293 293 292 292 291 291 291 291 291 291 291 292 292 293 293 293 294 294 295 295 295 295 295 295 295 294 294 294 294 293 293 293 293 293 293 293 293 293 293 292 291 291 290 291 291 290 289 289 288 288 288 288 289 289 288 288 287 287 287 288 289 289 289 290 290 290 290 290 290 290 290 291
297 297 296 296 296 296 295 295 294 294 294 293 293 293 293 293 292 292 291 291 291 291 291 291 291 292 292 293 293 293 294 294 294 294 294 294 294 293 293 293 293 293 293 293 293 293 293 293 293 293 292 292 291 291 291 290 291 291 289 288 288 288 288 288 289 289 289 289 289 288 287 287 287 288 289 289 289 290 290 290 290 290 290 291 292
297 297 296 297 296 296 296 296 295 294 294 294 294 294 294 294 293 293 292 292 292 292 291 291 291 292 292 292 292 293 293 293 293 293 292 292 292 292 292 292 292 292 292 293 292 292 292 293 292 292 292 291 290 290 290 290 290 289 288 288 288 288 288 289 289 289 289 289 289 289 288 287 287 288 288 288 289 289 289 290 290 290 291 292 292
296 296 296 296 296 296 296 296 295 295 294 294 294 294 294 293 293 293 293 292 292 292 292 292 292 292 292 292 292 292 292 292 292 292 291 291 291 291 291 292 292 292 292 292 292 292 292 292 292 292 291 290 290 290 289 289 289 288 288 288 288 288 289 289 289 289 289 289 290 290 290 288 287 287 288 288 289 289 289 290 290 291 291 292 292
296 296 296 296 296 296 296 295 295 295 294 294 294 294 293 293 293 293 293 293 292 292 292 292 292 292 292 292 292 292 292 292 292 291 291 291 291 291 291 291 291 291 291 291 291 291 291 291 291 291 290 290 290 289 289 289 288 288 288 288 288 289 289 289 289 289 289 289 289 290 290 290 288 287 287 288 289 289 289 290 290 291 291 291 291
296 296 296 296 296 296 295 295 295 295 294 294 294 293 293 293 293 293 293 292 292 292 292 292 292 292 292 292 292 293 293 293 293 293 292 291 291 291 291 290 290 290 290 289 290 290 291 291 291 290 290 289 289 289 288 288 288 288 288 289 289 289 290 290 290 289 289 289 290 290 290 290 290 288 287 287 288 289 289 290 290 291 291 291 291
Wind_Speed
29 32 30 29 28 26 25 24 22 22 21 19 19 19 19 17 16 16 18 18 17 16 15 13 12 10 9 8 7 7 6 6 5 5 4 4 3 3 5 5 4 3 4 4 3 6 7 5 4 6 8 10 11 9 8 8 8 9 9 7 9 11 9 5 8 8 6 7 7 6 5 6 3 1 5 9 9 5 4 9 13 9 9 11 12
25 29 31 31 28 26 25 23 20 18 18 18 18 18 19 18 16 16 18 18 17 16 15 13 12 10 9 8 7 6 4 4 4 4 3 3 2 2 5 5 1 1 2 1 1 3 4 2 2 3 4 7 8 6 6 7 8 7 8 9 9 9 9 6 4 4 4 6 6 4 4 7 5 5 5 7 11 6 2 6 11 9 10 14 14
23 25 29 30 28 25 22 20 18 15 15 15 16 17 17 17 17 17 17 17 16 14 13 12 12 10 8 7 6 5 4 4 4 5 5 3 3 2 4 4 2 1 2 2 1 0 2 2 1 2 3 4 5 4 5 7 9 7 4 5 4 7 9 8 6 5 3 4 4 5 5 4 4 3 5 7 11 7 1 2 6 6 9 13 16
20 21 24 25 25 23 20 18 18 17 15 14 14 15 15 16 17 17 16 16 15 13 11 11 11 10 9 7 6 5 6 6 6 7 6 4 4 3 2 3 2 1 2 3 2 4 1 2 1 1 2 3 4 5 3 4 7 7 5 5 4 6 6 6 6 4 3 4 4 5 4 1 3 4 3 6 7 7 2 3 4 6 6 8 12
15 17 20 22 23 24 23 21 21 19 16 14 13 13 15 16 17 16 16 14 13 12 10 10 10 10 9 8 8 7 8 10 8 7 7 5 5 4 3 4 4 3 5 6 6 5 3 2 2 2 2 1 4 4 3 5 5 7 6 5 5 4 3 3 5 4 4 5 3 1 1 0 3 4 3 3 4 3 3 3 2 4 4 4 7
11 14 18 22 24 24 23 22 22 20 16 15 15 15 14 14 15 15 14 12 11 11 10 10 9 8 7 8 8 9 12 12 9 7 8 7 7 7 5 6 7 7 9 8 6 6 6 4 3 5 5 3 4 5 4 3 4 6 5 3 2 3 3 1 1 1 2 5 5 3 4 5 4 3 4 6 6 6 7 7 6 7 9 9 9
10 12 15 18 19 19 20 21 22 21 19 18 19 18 15 14 14 13 13 12 12 12 12 11 10 10 12 13 11 10 10 10 9 9 10 10 11 11 10 9 9 9 10 10 8 8 7 5 3 5 7 5 5 5 4 2 3 5 5 3 4 5 5 3 2 2 5 7 6 7 7 8 6 5 6 6 5 6 9 10 11 13 15 15 14
10 11 14 16 17 18 20 20 19 21 21 21 21 21 19 17 16 16 16 15 15 15 14 14 14 15 17 17 14 10 8 8 10 12 13 12 12 13 11 10 11 11 11 12 11 9 7 4 4 6 6 5 6 6 6 5 4 4 4 5 6 7 5 5 6 6 7 9 7 6 7 6 5 7 8 8 8 10 12 13 14 15 16 16 18
9 11 13 15 17 20 21 19 18 18 18 19 21 21 21 20 18 18 19 19 19 19 18 17 17 17 17 16 14 10 9 9 9 11 11 11 13 14 12 11 14 13 10 10 10 8 6 5 5 7 7 7 7 7 7 8 8 7 6 6 7 8 8 9 10 10 10 9 8 6 6 6 6 8 9 9 9 12 15 16 16 17 19 20 21
7 9 10 11 13 15 15 16 16 15 15 17 19 20 20 20 19 19 19 19 19 19 18 17 17 16 15 14 13 10 8 10 11 11 11 11 14 15 12 10 10 7 5 6 7 7 6 4 4 5 5 6 7 8 8 8 9 9 9 10 10 10 10 10 10 9 9 10 9 7 8 10 10 9 10 11 11 12 14 16 18 20 21 22 22
6 7 7 8 11 12 11 10 11 12 12 12 15 18 20 21 21 20 20 19 18 17 18 19 18 17 15 13 12 11 11 13 14 13 13 13 13 12 8 4 1 2 3 6 7 6 6 6 5 3 3 3 4 5 5 6 6 7 8 9 9 9 10 10 8 7 8 10 10 9 9 11 11 11 11 12 13 14 15 16 17 18 19 19 20
6 6 7 7 8 8 8 7 7 8 9 8 11 15 18 19 19 19 19 18 17 16 16 17 18 18 17 14 12 12 12 13 13 12 12 10 8 5 3 4 5 5 5 6 6 5 5 5 4 4 4 3 3 3 3 3 3 5 6 8 8 8 8 9 8 8 9 9 10 10 10 10 12 14 14 15 16 17 17 18 17 19 21 21 23
6 6 7 8 8 8 8 7 6 8 8 8 8 9 10 13 16 17 17 17 17 16 15 16 17 18 18 17 14 13 12 12 10 7 7 7 7 7 6 5 4 4 5 5 5 5 4 2 1 1 2 2 3 4 3 3 3 5 6 8 9 9 9 9 9 9 10 11 12 13 14 14 15 18 19 18 19 19 20 21 22 23 25 25 26
7 7 7 6 5 5 5 5 4 5 7 6 6 6 6 8 11 12 13 14 15 15 16 16 17 16 16 16 14 11 9 8 7 7 8 9 9 8 8 8 8 7 7 7 6 7 7 6 3 1 3 3 4 4 3 5 7 8 9 9 9 9 10 11 11 11 11 12 13 16 19 19 18 19 20 20 20 21 23 24 24 25 26 27 29
8 10 9 7 6 6 6 5 3 3 5 5 4 4 5 6 7 8 10 11 11 11 11 12 12 11 11 11 10 10 9 9 9 9 8 7 7 8 9 10 9 8 9 10 9 10 11 11 8 7 7 5 4 5 5 6 7 9 10 10 9 9 10 11 12 13 13 13 13 15 20 22 21 21 21 21 22 23 24 24 25 26 28 29 30
9 10 9 9 8 9 9 7 6 6 6 7 5 4 6 7 7 7 7 8 8 8 8 9 9 9 10 11 11 11 10 10 9 8 7 7 8 9 10 10 8 7 8 9 10 9 9 9 11 11 9 7 6 6 6 6 5 5 8 11 10 9 9 10 11 12 13 13 13 14 16 19 20 20 20 21 22 24 25 25 25 26 28 29 29
9 9 9 10 9 8 8 7 8 8 8 7 6 5 7 7 6 6 7 7 6 7 7 9 9 9 10 11 10 10 10 9 9 8 8 9 9 9 10 9 9 8 6 8 9 8 7 9 10 9 6 5 5 5 5 6 4 3 5 10 13 11 9 11 12 12 12 12 13 14 15 16 18 19 20 21 23 24 25 26 26 27 27 27 28
11 10 9 9 8 7 7 7 6 7 6 5 6 7 6 5 4 5 6 6 7 7 7 9 11 10 10 10 9 9 10 10 9 9 9 9 9 9 10 10 10 8 5 7 6 5 6 8 9 8 5 5 6 5 5 6 4 5 6 8 12 12 11 12 14 14 13 13 14 15 16 18 19 21 22 23 24 25 25 25 25 24 24 24 25
11 10 7 7 6 5 6 6 5 5 3 3 6 7 6 5 4 5 6 7 8 9 8 9 12 12 12 11 10 9 11 11 10 10 10 9 9 10 10 9 9 8 6 6 5 4 4 4 5 7 5 5 6 6 6 7 6 7 9 9 10 11 10 13 16 17 15 15 17 18 19 21 21 22 22 21 21 21 20 20 21 21 22 22 20
8 7 6 6 7 5 4 3 1 2 1 2 4 5 6 7 7 7 9 9 10 11 11 12 14 14 14 14 13 11 11 11 11 10 10 9 9 11 11 9 8 8 8 7 7 6 6 6 5 5 5 6 7 7 7 7 7 9 11 12 12 10 10 13 16 17 16 17 19 20 21 19 18 18 17 16 16 16 16 18 19 20 20 19 18
4 5 6 5 5 4 3 3 3 3 3 4 4 5 7 9 9 9 10 12 12 11 12 14 14 15 17 17 15 14 14 13 12 11 10 9 9 11 13 13 11 8 7 7 9 10 9 8 7 7 8 10 11 9 7 6 7 10 12 13 13 12 13 15 16 18 19 19 19 18 16 14 13 13 14 16 16 16 16 15 15 14 14 14 16
8 8 7 6 5 3 3 4 4 4 5 6 7 7 8 10 11 11 12 14 14 12 13 15 15 15 18 19 17 16 16 15 13 12 11 11 10 11 13 15 14 12 10 8 9 10 8 7 7 8 11 13 12 9 8 7 7 9 11 11 12 13 13 15 16 17 18 16 15 13 11 11 12 12 12 13 13 12 11 10 11 13 13 14 17
13 12 11 12 11 9 8 8 8 8 8 9 10 10 9 10 11 12 13 14 15 14 15 17 17 15 16 17 16 16 17 18 17 15 13 13 13 13 13 13 14 14 13 10 9 10 8 7 9 11 13 16 14 9 8 8 8 9 9 10 11 12 12 12 13 13 13 12 12 12 11 10 10 10 11 13 14 14 13 14 17 19 21 23 26
15 16 16 16 15 14 12 11 10 10 11 11 11 11 12 13 13 13 13 14 14 14 14 17 20 18 16 16 17 17 19 20 19 17 16 15 14 14 15 15 14 14 13 12 11 11 10 10 11 12 13 14 12 10 9 9 9 10 10 11 11 12 11 11 11 9 9 10 10 10 9 9 10 12 15 18 19 20 21 23 25 27 29 30 30
15 16 16 17 17 16 15 14 13 14 13 12 13 13 13 14 15 16 16 15 15 16 15 16 19 20 19 19 18 19 22 24 23 21 19 18 17 16 16 15 14 14 14 14 12 10 10 10 10 11 12 12 10 10 9 10 10 11 11 11 11 11 11 10 8 9 10 10 9 10 12 13 14 16 19 21 22 22 23 24 26 27 28 28 26
15 16 16 17 19 19 19 19 18 18 17 16 16 16 16 16 17 18 19 19 18 18 18 18 19 19 19 20 20 20 20 22 24 24 22 20 20 18 16 15 15 14 14 12 11 10 10 10 10 10 11 10 10 10 9 10 11 12 12 11 10 8 8 8 9 11 12 9 8 10 13 15 15 18 20 21 20 19 19 19 21 22 22 21 21
17 18 17 17 17 17 18 19 19 19 20 19 19 18 18 18 19 19 20 22 23 22 22 22 22 21 20 21 23 23 21 19 21 23 24 22 21 19 17 16 15 14 13 11 10 10 10 10 10 10 10 10 10 10 9 10 12 12 10 8 6 5 8 9 10 10 8 5 6 10 11 14 17 19 20 19 16 15 14 15 17 18 18 18 19
18 19 19 19 18 18 18 19 19 19 19 19 20 21 21 20 20 21 21 22 24 25 25 25 24 24 24 24 25 26 25 22 21 22 24 24 22 20 19 17 15 14 12 10 9 9 9 10 11 11 11 10 9 9 9 9 10 9 8 6 4 5 8 10 9 7 6 3 9 14 16 19 21 20 17 16 14 14 14 14 16 17 17 18 18
18 19 20 19 19 18 19 20 21 21 21 21 22 23 23 23 23 24 24 23 24 25 26 26 25 25 27 27 26 26 26 24 22 22 23 24 22 20 19 17 15 13 11 9 9 9 10 11 12 12 11 10 10 9 6 4 5 7 9 9 6 5 7 8 7 7 7 9 14 18 20 22 22 18 15 14 14 14 15 15 15 16 16 16 16
17 17 17 18 18 17 17 17 18 18 19 21 22 22 23 24 25 26 27 27 27 27 28 27 27 27 28 28 28 29 28 25 23 22 21 22 23 22 20 16 15 14 11 10 10 10 11 12 12 12 11 11 10 7 3 4 7 8 10 11 9 7 7 9 8 9 12 14 17 19 20 20 18 17 15 15 16 16 16 15 14 15 15 15 16
17 16 16 16 17 17 16 17 17 18 18 19 20 20 21 21 23 25 27 28 30 32 31 29 28 29 28 26 26 28 28 27 25 23 21 23 24 23 21 18 16 15 13 11 11 11 11 12 12 12 10 8 6 4 7 10 10 9 8 8 9 8 8 7 6 8 12 16 17 17 15 15 14 14 15 16 18 18 16 15 16 17 16 17 17
16 16 16 17 18 18 16 15 15 16 17 18 18 19 20 20 21 22 23 25 27 29 31 31 31 31 29 26 26 27 27 28 29 26 22 22 23 22 22 21 19 17 14 13 13 12 10 11 10 9 8 9 8 9 12 12 11 10 8 7 6 7 7 6 6 9 12 14 14 13 13 13 13 14 16 17 18 17 16 15 16 17 18 18 18
14 14 15 16 18 19 18 15 13 14 16 17 17 17 18 20 20 21 22 23 23 24 25 25 25 25 25 25 27 27 24 23 25 24 22 22 24 24 23 22 19 16 15 16 15 12 9 9 9 9 11 12 12 13 14 13 11 10 8 6 4 5 6 7 8 8 8 9 10 11 13 13 13 14 16 17 16 16 16 16 17 18 18 18 18
13 14 15 16 18 19 18 17 16 15 16 17 17 18 19 20 21 21 21 21 21 22 23 22 20 20 20 21 21 21 19 20 22 23 23 24 23 21 19 18 18 16 16 16 14 10 9 10 10 12 13 14 14 15 14 11 9 8 7 6 5 5 6 8 9 9 10 10 11 13 13 14 15 16 17 17 16 17 17 17 17 17 17 18 19
12 13 13 14 15 15 15 15 15 16 17 18 19 20 20 19 18 18 17 16 16 15 16 16 16 16 17 19 19 17 18 20 22 22 19 16 14 11 11 13 15 15 14 14 13 10 11 11 12 12 13 14 15 15 12 10 9 7 6 5 5 6 8 9 9 9 9 8 8 11 13 14 15 16 17 17 16 16 16 16 16 17 18 19 19
11 12 12 11 11 12 12 13 14 15 16 17 17 17 17 16 16 15 13 13 13 13 12 12 13 15 17 20 20 18 17 19 19 18 16 13 11 10 10 11 12 12 11 12 12 10 10 11 12 13 14 15 16 15 11 9 8 7 6 6 6 7 8 8 8 8 8 6 5 7 10 13 14 16 16 16 16 16 16 16 16 16 17 16 15
10 11 12 11 11 12 13 14 13 11 10 11 12 13 12 14 15 13 10 10 12 12 11 10 10 11 14 17 17 16 15 16 16 16 17 17 16 16 17 17 16 15 13 13 14 12 12 13 15 15 15 15 14 12 10 8 7 7 9 9 8 7 7 6 7 8 8 6 5 8 9 10 12 14 15 15 15 15 15 15 14 14 13 11 11
9 10 10 10 10 10 10 9 9 10 12 12 13 11 9 10 12 12 11 10 9 9 8 8 8 8 9 10 11 10 11 12 13 13 14 14 14 15 17 18 19 19 18 17 16 14 15 17 18 17 15 12 10 9 10 9 8 9 9 7 3 3 5 5 6 7 7 6 8 11 11 10 11 13 13 14 14 14 13 12 13 14 14 12 11
7 7 8 7 6 5 5 7 9 12 14 15 15 14 13 14 14 13 11 10 8 7 6 5 5 6 7 7 8 9 10 11 10 11 12 12 13 15 17 18 17 17 17 16 15 16 18 20 19 16 13 11 9 10 11 10 9 8 7 3 1 2 4 3 4 6 7 8 10 11 11 13 15 14 13 13 13 11 10 11 13 14 14 14 14
8 7 6 6 7 8 9 11 12 11 13 17 18 18 18 17 16 15 13 11 9 8 6 5 5 7 8 7 7 8 9 10 11 12 13 13 14 16 17 17 15 14 14 16 17 20 21 22 19 16 14 12 11 12 12 10 7 5 3 4 5 6 5 5 7 10 10 10 11 11 11 14 16 15 12 11 10 10 10 11 11 12 13 15 16
8 6 4 5 9 11 12 11 9 11 14 17 18 18 17 15 12 12 12 12 12 9 7 5 6 10 11 9 7 7 8 8 10 11 12 13 14 14 14 15 14 15 17 19 19 19 21 21 18 15 14 14 14 13 12 9 7 5 6 8 10 10 8 8 9 11 10 10 11 10 11 13 15 14 12 11 11 10 8 8 8 11 13 15 16
9 8 7 8 9 10 9 7 8 12 15 18 18 16 15 13 12 11 10 10 13 13 11 10 9 11 12 10 8 8 9 8 7 7 8 9 10 12 13 15 16 18 20 18 14 13 16 16 15 15 15 15 13 9 8 8 8 7 10 12 12 10 9 9 10 11 10 10 9 9 10 12 13 13 12 11 11 9 6 7 9 11 14 16 16
8 7 8 8 7 6 5 6 9 12 16 18 18 17 14 12 10 10 8 7 9 11 13 14 14 14 14 13 13 12 12 10 9 8 7 8 13 16 16 17 18 18 16 12 10 11 13 15 16 17 17 16 15 13 12 13 13 11 11 11 10 8 8 8 9 9 9 8 8 8 9 10 13 14 13 11 9 7 8 11 12 13 15 16 16
5 4 4 5 5 4 4 5 8 11 14 17 18 18 17 15 12 9 7 6 6 8 10 12 13 13 14 14 14 14 12 10 10 10 10 13 17 18 18 18 17 15 14 14 14 15 16 17 18 19 17 16 16 16 15 13 11 11 10 9 7 6 5 6 7 7 7 7 7 7 8 9 12 14 13 10 9 11 12 13 13 15 17 16 14
3 2 2 2 3 4 5 5 7 9 11 13 15 18 18 17 14 12 10 7 4 4 4 5 8 10 12 13 13 13 12 12 12 12 14 17 19 20 19 19 17 17 18 18 17 18 18 18 18 19 17 15 15 15 12 9 8 8 8 6 5 4 5 6 6 6 7 7 7 7 8 9 11 13 12 9 10 11 11 13 15 17 17 14 13
3 4 4 4 4 5 6 7 7 7 8 10 13 16 16 15 14 13 11 10 8 5 4 3 2 2 4 6 8 11 14 15 16 17 18 19 20 21 20 19 19 19 19 17 15 16 17 16 16 16 14 13 13 13 11 9 8 7 5 4 4 5 5 6 6 6 7 8 8 8 8 8 10 12 12 9 8 9 11 13 16 17 14 12 14
7 7 7 6 5 6 8 8 7 7 8 9 12 13 14 14 13 12 11 11 10 10 9 8 8 8 9 11 13 14 16 16 16 17 17 17 18 19 19 19 19 19 18 16 15 14 13 14 13 12 12 11 11 11 10 9 7 5 3 3 4 5 5 5 6 6 7 8 9 10 9 9 9 11 12 9 7 8 11 13 14 15 14 14 16
7 7 7 6 5 5 7 7 6 7 8 9 10 11 12 13 12 12 11 12 13 14 14 13 13 12 13 13 13 14 15 15 16 16 17 16 16 16 16 16 16 15 16 17 16 13 12 13 11 9 7 9 10 10 8 7 5 3 3 3 5 5 5 6 6 7 7 8 10 11 11 11 10 11 12 11 10 11 11 11 12 14 15 15 16
5 6 5 3 3 4 4 4 5 6 7 7 7 8 10 11 11 11 11 11 12 13 15 15 15 15 15 15 15 14 15 15 16 17 19 18 17 15 14 12 11 10 11 14 14 12 11 13 11 8 6 8 9 8 6 5 4 4 4 4 5 5 6 6 7 7 7 8 9 10 12 12 12 11 11 12 13 12 10 9 11 14 15 15 15
3 3 2 3 1 0 0 2 5 6 6 6 6 6 7 7 9 10 10 10 10 11 12 13 13 13 13 13 13 13 13 13 13 15 16 17 16 15 13 11 9 7 7 9 11 11 11 12 12 9 8 8 7 5 3 3 4 4 4 5 5 6 6 7 7 8 8 8 9 10 11 12 12 11 11 12 12 10 8 9 11 13 14 14 15
1 2 5 6 4 3 3 0 4 5 5 5 5 5 5 5 5 6 7 9 9 9 9 9 9 8 8 8 8 9 9 9 8 9 12 14 15 14 12 10 9 9 10 10 9 9 8 9 10 9 8 7 5 2 2 3 4 4 4 5 5 5 6 7 7 8 8 8 9 9 10 11 12 12 12 11 9 8 9 10 10 11 13 14 14
Wind_Direction
175 179 181 184 183 179 180 185 189 195 195 188 186 186 186 186 185 182 179 178 177 172 169 169 165 164 163 160 161 155 147 149 142 136 140 131 123 113 94 81 72 82 91 92 94 86 81 70 71 81 88 92 78 65 81 78 69 87 82 84 108 86 72 124 126 116 128 127 137 166 143 131 156 317 334 341 1 0 325 3 12 7 5 3 359
179 182 185 187 187 184 184 184 186 193 197 191 187 189 189 188 190 190 185 182 180 176 173 173 172 174 175 177 181 178 174 179 166 167 192 188 176 143 122 126 143 88 98 80 47 97 117 118 62 72 89 104 106 104 112 93 77 103 112 97 106 105 91 96 97 77 92 125 154 188 135 125 168 228 287 350 22 25 283 348 3 350 341 351 353
185 189 193 194 193 189 188 187 183 187 197 199 196 195 193 190 192 194 191 187 183 177 178 180 176 179 183 182 187 184 184 197 182 183 209 202 175 160 144 159 203 221 132 112 83 142 126 112 39 60 111 139 138 128 123 103 91 103 103 68 106 140 116 105 95 74 82 91 106 170 161 117 141 205 297 347 17 29 201 296 349 339 325 341 350
188 191 194 196 196 195 195 193 190 190 192 196 200 203 199 194 196 197 192 192 189 180 188 196 186 184 184 179 186 184 190 212 203 194 212 205 185 193 187 205 242 255 160 137 184 250 238 118 110 56 107 148 124 98 119 151 125 115 91 70 121 150 123 125 127 111 127 113 106 181 197 74 128 170 281 330 358 12 354 276 339 0 332 330 347
188 188 190 194 198 203 203 199 196 194 185 178 188 205 208 202 199 198 193 194 191 182 195 214 203 195 188 183 196 207 216 229 225 210 212 210 214 237 258 256 254 236 215 195 197 231 243 194 201 209 196 170 122 124 193 221 173 149 136 119 140 144 96 136 159 142 162 162 145 222 276 52 167 184 225 268 291 296 267 251 307 340 306 293 337
183 185 190 198 202 203 201 197 198 199 192 183 185 197 211 208 198 196 193 193 194 189 196 211 207 202 200 199 213 221 217 221 228 231 233 238 242 244 239 238 239 236 236 231 217 220 228 226 224 225 226 213 180 193 225 238 210 201 184 139 163 170 123 114 164 125 240 217 193 211 223 205 205 218 228 247 270 260 245 247 259 273 272 274 305
188 189 193 200 203 202 200 200 205 204 196 189 185 184 192 195 189 189 190 189 197 199 198 201 204 211 216 217 226 227 212 208 216 231 247 255 253 248 241 241 250 259 266 268 257 234 224 226 227 229 230 227 224 233 248 256 245 240 220 200 230 208 160 158 178 190 268 266 231 226 234 226 229 246 245 255 288 281 264 257 252 257 263 269 288
205 208 207 207 207 208 204 199 201 202 196 190 187 183 183 187 186 187 188 189 195 198 197 199 205 216 224 224 229 241 254 247 230 233 247 255 260 263 263 264 273 277 273 268 259 242 227 225 229 234 240 244 244 245 256 281 297 279 236 219 232 230 213 225 237 237 261 276 271 262 257 245 248 264 262 261 271 274 268 260 257 264 272 279 290
194 201 210 212 211 211 204 188 183 193 197 194 192 188 185 189 195 198 196 195 199 202 204 206 209 219 231 235 235 247 272 269 245 240 250 261 272 276 277 281 287 288 274 257 244 231 223 213 216 231 238 236 236 238 249 272 285 281 276 275 267 262 263 264 265 265 268 275 286 293 286 278 278 275 267 264 267 265 260 258 263 274 283 287 291
173 178 191 198 199 198 190 174 170 181 193 195 198 200 198 197 202 207 206 206 210 212 211 212 216 224 236 244 245 252 269 266 252 245 248 258 270 277 284 291 294 291 257 214 195 200 205 182 184 212 222 217 220 227 237 251 263 269 278 284 284 281 279 277 277 274 266 265 272 284 293 291 284 277 272 266 264 267 270 273 277 282 286 290 295
148 156 161 169 181 179 165 159 166 177 188 191 194 202 207 207 208 210 211 214 218 218 216 217 224 232 239 243 247 256 265 262 256 254 255 259 262 267 270 260 193 106 140 155 153 166 170 154 160 180 174 175 191 210 228 242 256 267 277 282 283 281 278 280 286 277 261 260 261 262 278 286 277 271 270 265 264 272 280 283 283 283 286 291 295
128 125 120 128 146 147 137 137 148 165 184 192 191 196 203 207 209 210 214 218 222 221 220 223 228 235 237 239 250 262 263 260 260 261 260 252 238 227 201 152 128 105 105 117 124 136 141 139 154 163 156 160 177 194 211 230 256 272 281 286 285 281 277 276 274 264 259 262 260 256 263 270 266 260 260 264 271 275 277 279 281 281 284 289 291
102 105 105 108 114 116 122 126 129 146 162 171 186 199 205 206 210 215 218 223 227 228 229 232 235 239 242 247 258 262 255 251 250 239 219 201 174 147 126 123 129 119 106 101 101 106 106 89 89 169 172 174 182 195 207 224 257 274 279 281 281 283 282 279 272 265 260 257 254 253 255 256 256 256 259 268 274 275 277 282 285 285 286 289 291
60 67 72 87 105 111 117 124 129 148 157 160 180 200 202 203 209 214 218 224 229 233 236 240 241 242 244 247 249 244 232 219 202 179 170 165 161 164 164 157 155 154 153 151 149 156 162 149 129 212 234 198 180 201 242 271 282 289 289 280 277 282 283 282 281 275 268 262 255 251 252 252 254 259 266 274 276 275 280 287 290 290 290 292 294
69 67 64 71 84 89 93 96 97 129 145 150 174 194 195 201 204 202 209 218 223 226 229 231 231 229 228 225 214 201 191 181 172 172 179 181 183 189 176 157 158 172 175 173 179 188 186 175 173 202 230 234 215 216 242 271 287 300 301 292 286 290 287 281 277 274 271 270 264 256 255 259 263 267 273 276 276 279 286 291 293 294 295 296 299
79 75 73 80 89 94 99 105 109 112 113 112 123 155 168 180 193 192 192 201 204 201 198 201 205 203 195 187 180 180 180 179 183 192 197 190 181 169 150 143 159 176 179 186 196 204 203 197 203 218 232 241 237 233 242 255 262 276 292 294 295 300 300 293 287 284 282 280 274 266 262 264 267 271 274 277 280 286 290 293 295 297 298 300 302
71 70 76 78 81 92 99 106 117 121 117 117 120 123 135 152 169 175 177 183 182 178 176 175 179 189 191 183 180 188 193 194 200 205 192 178 172 158 145 157 176 176 186 203 203 201 200 199 212 228 233 234 245 255 263 270 257 216 250 283 290 296 305 306 303 301 298 292 285 277 270 269 272 276 280 284 288 291 293 295 297 298 299 302 304
57 59 67 63 63 86 96 94 112 121 118 134 141 123 121 141 144 147 165 171 166 168 172 168 171 189 212 214 206 205 206 204 201 194 184 177 172 158 151 172 190 189 207 223 209 203 206 199 211 233 244 259 275 282 284 288 271 202 205 254 278 286 291 291 291 293 292 289 289 286 283 282 283 285 288 291 293 294 297 298 299 301 305 309 310
48 46 44 43 50 75 90 90 111 127 104 124 146 138 146 167 158 156 173 177 175 181 184 177 176 189 213 228 226 210 200 197 192 189 190 187 180 168 162 180 201 201 215 241 237 226 233 229 233 244 253 274 288 291 289 287 266 228 216 224 245 261 265 267 274 281 284 288 292 293 291 290 289 290 292 295 298 301 303 304 306 311 312 314 315
37 38 31 28 30 22 15 26 9 224 206 187 177 171 182 188 185 193 198 197 199 200 197 194 191 193 203 215 221 218 206 199 193 192 195 192 186 185 183 183 191 195 209 240 250 245 257 271 268 263 282 307 311 297 282 276 262 246 236 231 235 247 255 260 270 278 285 290 292 293 296 299 302 304 306 308 311 311 309 310 314 316 315 317 320
4 20 17 5 2 353 329 309 287 252 239 243 231 220 222 221 219 217 208 205 211 211 205 205 200 198 202 207 214 222 221 215 206 201 202 200 195 198 198 192 189 191 199 231 253 253 254 258 255 259 285 307 311 299 284 275 257 244 241 241 244 252 261 268 275 280 284 288 292 296 303 309 311 313 315 318 318 315 311 309 309 307 303 303 301
310 326 329 304 280 274 272 271 266 250 244 246 239 236 245 244 236 229 221 216 217 215 210 207 201 201 210 213 215 220 224 225 221 214 212 211 207 206 207 204 203 200 191 207 244 248 234 236 255 272 290 302 305 297 285 281 267 253 252 255 258 263 269 273 277 280 284 288 290 292 294 294 295 299 301 301 300 302 304 297 286 282 278 275 279
303 302 297 288 282 276 274 278 280 278 276 269 258 250 251 249 241 238 235 228 223 223 221 215 207 205 212 217 218 224 230 234 234 228 220 216 214 213 211 207 207 205 197 201 233 244 239 249 268 278 286 294 299 294 281 279 277 272 270 272 277 281 281 281 281 282 283 283 284 291 299 299 295 289 277 266 259 259 264 268 269 271 272 271 274
299 296 294 293 292 288 285 283 279 273 273 276 274 267 259 253 246 240 238 234 229 229 230 224 219 217 221 229 232 233 236 240 240 235 225 218 215 212 206 200 199 200 199 204 220 235 244 256 266 271 275 283 288 287 281 278 278 278 281 285 288 288 287 285 284 280 277 280 289 298 296 281 272 268 264 262 261 262 265 268 270 272 274 276 276
299 298 296 292 289 286 282 278 274 271 269 270 271 270 264 259 251 243 240 239 235 233 232 231 231 227 226 233 236 234 236 240 241 238 230 218 210 204 199 197 195 194 198 206 215 227 238 248 257 265 271 275 277 278 278 278 278 284 289 293 293 292 287 279 271 269 271 274 279 278 269 266 269 271 270 270 272 274 275 276 277 277 278 279 279
291 290 291 290 289 286 283 279 277 274 270 266 266 267 263 260 256 252 248 244 241 240 238 238 239 234 229 230 234 236 238 239 239 238 231 217 206 199 197 198 195 194 197 200 204 214 228 240 250 260 267 270 274 277 276 277 283 288 291 295 297 289 276 271 276 285 288 283 283 286 283 279 275 273 274 277 277 278 281 284 283 283 285 287 287
283 283 286 287 287 286 283 280 276 272 269 265 263 263 261 259 257 255 252 248 245 245 244 242 243 242 239 237 237 238 237 237 239 238 228 215 205 201 201 201 197 196 198 196 198 212 227 241 250 254 258 264 271 277 278 280 286 287 289 302 310 291 284 290 296 308 321 317 289 283 279 277 279 280 281 283 282 281 285 288 288 288 290 292 293
287 283 281 280 281 282 281 278 271 267 266 264 261 259 257 256 256 256 254 253 251 247 244 241 240 242 245 247 245 242 241 242 243 235 220 212 210 207 205 203 200 199 200 200 205 218 231 242 249 252 256 262 266 271 278 287 292 292 298 315 311 280 290 302 310 326 346 306 263 263 264 271 283 288 288 289 291 289 286 285 286 287 289 292 295
300 298 293 289 287 287 287 286 282 278 274 271 266 262 258 257 260 259 255 254 257 256 253 252 249 248 250 252 251 250 247 245 246 238 222 213 215 214 210 205 203 205 207 205 211 223 231 240 249 252 255 259 262 267 278 290 291 291 295 298 286 255 265 286 298 299 286 264 263 272 278 283 289 292 293 296 299 297 294 293 292 293 296 299 302
303 304 302 299 298 296 290 287 287 285 282 278 274 270 265 262 261 261 258 256 259 263 263 262 260 258 258 259 258 257 253 247 248 247 234 224 223 222 215 208 208 213 211 200 204 220 229 234 242 246 248 253 260 266 246 223 245 264 275 283 286 273 263 266 263 262 269 277 283 286 287 288 291 294 300 304 303 304 308 311 311 312 314 313 310
296 296 295 296 300 300 293 286 283 282 280 279 278 276 274 269 266 263 260 258 259 262 263 261 258 260 265 266 263 261 258 252 251 250 244 241 237 226 212 208 213 219 216 204 206 218 227 230 236 240 240 238 239 227 210 220 239 253 258 272 289 297 296 293 284 280 291 301 303 298 293 292 295 301 306 306 305 310 317 321 321 322 320 316 312
293 294 293 292 292 293 290 286 285 286 286 284 281 280 279 280 279 275 269 264 262 261 260 258 257 260 264 265 262 263 263 259 254 249 241 238 233 220 211 212 218 220 216 214 220 228 229 226 227 225 214 203 202 211 219 228 243 251 249 253 273 289 299 308 304 299 304 311 314 314 312 308 305 304 304 304 306 313 320 321 319 317 313 310 308
294 293 291 290 288 285 280 275 278 290 295 292 288 286 283 281 283 284 282 278 273 266 260 258 258 261 264 263 261 260 257 251 247 239 225 214 210 209 209 212 216 217 215 218 226 232 225 213 211 211 210 206 207 218 229 239 250 254 251 244 242 260 279 281 271 270 285 300 307 309 308 306 304 301 301 306 313 319 322 320 315 312 310 308 305
300 294 290 288 285 282 281 280 281 290 298 297 294 292 287 281 280 284 287 286 279 270 262 257 256 258 258 256 251 242 226 215 214 212 205 200 199 202 203 203 207 212 214 220 226 223 209 206 208 213 216 212 213 225 236 240 242 246 248 240 225 229 258 269 265 261 265 275 286 296 304 308 309 309 310 316 321 322 321 318 314 310 308 305 304
304 301 297 296 294 292 294 295 291 289 291 291 291 291 289 287 283 281 286 290 283 269 258 252 249 248 246 245 242 232 217 210 208 205 202 199 196 197 196 197 202 208 213 222 226 214 204 209 212 214 215 211 213 225 235 231 230 237 241 237 226 228 244 259 271 280 287 297 312 321 323 319 316 316 318 320 319 314 312 310 307 305 303 302 304
308 307 305 306 305 300 297 294 291 290 290 290 291 292 293 293 287 278 279 291 287 273 260 252 250 249 245 241 238 233 228 227 224 222 225 229 228 230 233 229 228 229 232 235 232 217 205 208 210 211 213 212 215 224 230 227 227 225 214 215 225 236 249 263 281 299 320 346 346 321 316 314 314 314 312 308 305 303 303 303 300 298 299 300 304
307 307 306 303 296 291 291 288 289 303 318 317 310 307 302 300 297 287 278 286 293 288 279 269 263 260 252 240 231 224 225 230 233 235 242 244 240 237 239 241 242 243 246 246 238 220 206 207 211 212 212 213 220 228 227 217 209 206 215 227 235 244 262 285 307 322 337 348 325 304 304 306 307 307 305 304 304 303 301 303 307 313 318 319 322
308 305 304 299 290 290 299 302 311 340 351 336 319 313 303 294 295 293 283 282 293 298 292 284 284 283 271 255 242 232 230 235 237 238 243 246 240 233 232 235 238 240 244 244 233 214 203 208 212 212 211 212 215 217 213 202 193 205 228 243 247 255 278 305 327 328 327 320 310 310 313 313 310 306 301 299 298 297 300 314 331 340 342 341 338
324 318 316 320 321 325 341 356 5 4 347 322 307 302 289 275 272 274 274 272 277 279 270 264 274 280 274 264 252 239 233 235 238 242 250 254 250 242 234 228 227 230 233 229 217 206 208 214 212 204 198 197 196 201 207 204 198 212 230 225 157 230 267 292 294 288 289 295 303 312 322 326 323 317 306 298 299 310 327 342 346 343 341 341 341
354 344 344 4 17 23 26 23 17 357 324 310 309 308 302 291 278 266 259 254 254 253 240 235 259 270 265 255 235 218 220 232 243 246 247 247 248 246 233 215 208 210 210 206 202 199 203 208 203 189 182 187 194 205 213 210 201 204 206 178 190 216 231 242 257 267 279 295 306 318 331 332 330 328 324 320 327 340 345 342 340 342 345 346 344
17 6 8 27 33 35 35 26 360 327 318 322 326 325 324 323 312 289 270 258 251 239 213 206 245 258 254 248 226 203 212 236 247 245 243 242 243 237 216 197 193 198 201 202 202 201 204 205 195 181 182 193 201 210 217 208 189 186 202 209 217 223 225 237 261 278 291 301 308 321 333 336 338 341 341 339 340 339 336 340 349 353 352 351 348
36 37 38 41 39 39 33 5 325 325 340 351 352 349 346 344 334 318 298 274 261 248 226 216 234 244 241 237 227 213 213 214 211 225 245 241 217 196 187 189 195 199 201 204 205 207 210 205 189 180 189 195 194 199 205 191 178 191 214 225 233 239 238 250 272 289 298 301 308 321 333 338 344 348 345 337 332 331 345 9 12 4 358 356 351
27 31 35 36 33 33 25 349 332 343 359 7 9 9 5 358 347 333 320 297 273 255 238 231 236 239 235 231 231 232 231 221 211 222 228 192 170 171 181 192 196 196 198 198 191 187 188 182 177 184 193 188 175 173 181 183 187 202 221 234 246 250 253 268 285 294 299 304 312 323 332 338 346 350 347 339 342 4 24 22 14 7 3 358 350
5 4 35 47 35 18 1 352 353 357 2 10 19 22 18 14 10 359 340 317 287 265 248 239 238 238 237 238 242 246 248 241 231 224 204 179 175 179 182 183 185 183 177 171 172 177 181 181 183 189 191 187 184 188 194 199 207 220 235 251 263 267 274 288 297 304 315 322 324 326 332 342 350 352 351 356 19 33 28 17 10 7 3 357 351
353 354 24 44 27 2 348 0 17 15 7 12 25 29 26 22 21 20 20 16 351 303 271 254 249 247 246 246 245 240 232 221 210 199 187 180 178 177 174 173 175 173 166 165 172 179 184 189 193 191 191 198 207 210 213 223 231 232 240 258 277 285 292 301 312 326 337 340 336 334 339 349 354 355 356 12 33 32 19 12 10 5 0 358 358
41 54 40 23 18 15 12 21 32 28 19 23 30 32 31 28 25 26 32 38 40 47 69 90 114 169 188 188 184 180 181 180 176 173 172 171 168 165 163 163 164 163 163 167 176 180 184 192 200 203 208 218 219 211 210 221 230 231 239 264 285 292 299 310 322 335 344 349 350 350 351 352 355 358 359 9 29 30 20 15 11 5 1 4 7
45 46 35 21 13 14 18 26 33 30 29 35 36 36 35 35 36 40 46 49 51 58 72 89 103 114 126 137 142 147 152 154 152 150 152 155 157 158 157 157 157 161 166 172 178 184 191 199 208 219 227 224 211 205 211 226 235 239 249 273 283 294 308 319 323 331 343 351 355 359 358 354 356 0 358 0 21 30 20 15 12 7 5 8 8
34 32 26 22 23 19 19 28 36 33 31 32 30 27 28 34 42 53 59 60 62 69 78 90 101 108 115 122 129 135 140 141 140 138 139 142 148 154 158 159 160 166 177 183 186 191 198 204 214 228 223 203 197 205 220 234 246 261 276 282 292 307 320 323 323 329 338 344 352 359 359 356 360 360 354 359 18 24 17 15 15 10 5 6 5
27 32 17 5 25 32 30 41 46 37 37 44 38 22 16 25 39 53 62 67 72 79 86 94 98 101 104 109 115 124 131 137 138 138 137 139 143 149 155 165 173 183 194 199 199 199 203 213 225 236 219 202 204 212 220 234 260 281 287 294 309 322 327 326 327 331 333 338 346 352 354 358 3 358 353 5 19 20 13 16 19 12 7 6 2
33 44 351 315 329 42 118 100 84 62 47 51 52 39 28 28 35 46 60 72 80 88 97 102 102 101 103 107 111 119 129 138 145 147 146 147 151 157 163 174 184 181 174 183 195 203 209 217 223 224 213 209 213 214 220 247 268 281 292 307 319 323 324 326 328 328 329 334 338 340 347 355 357 354 358 13 20 15 12 19 20 15 11 5 356
271 295 297 296 292 284 287 30 94 84 66 61 66 65 65 64 54 52 62 74 84 95 107 115 116 117 117 113 108 110 117 126 138 154 160 162 166 172 176 178 173 153 137 147 174 193 194 196 202 203 202 206 214 224 247 261 275 291 304 314 322 326 327 328 326 323 324 326 327 332 340 345 347 354 6 12 9 8 17 20 16 14 11 3 352